TimeEST,TemperatureF,Dew PointF,Humidity,Sea Level PressureIn,VisibilityMPH,Wind Direction,Wind SpeedMPH,Gust SpeedMPH,PrecipitationIn,Events,Conditions,WindDirDegrees,DateUTC
1:54 AM,62.1,57.9,86,30.08,10.0,SSW,4.6,-,N/A,,Clear,200,2013-01-14 06:54:00
2:54 AM,62.1,57.9,86,30.09,10.0,South,3.5,-,N/A,,Clear,190,2013-01-14 07:54:00
3:54 AM,62.1,57.9,86,30.08,10.0,South,4.6,-,N/A,,Overcast,180,2013-01-14 08:54:00
5:54 AM,61.0,57.9,90,30.07,10.0,Calm,Calm,-,N/A,,Overcast,0,2013-01-14 10:54:00
6:54 AM,61.0,57.0,87,30.08,10.0,Calm,Calm,-,0.00,,Overcast,0,2013-01-14 11:54:00
7:54 AM,61.0,57.0,87,30.10,10.0,Calm,Calm,-,N/A,,Mostly Cloudy,0,2013-01-14 12:54:00
8:54 AM,62.1,57.0,84,30.12,10.0,South,4.6,-,0.00,,Overcast,180,2013-01-14 13:54:00
9:54 AM,63.0,57.0,81,30.13,10.0,South,5.8,-,0.00,Rain,Light Rain,190,2013-01-14 14:54:00
10:54 AM,62.1,59.0,90,30.12,2.5,Calm,Calm,-,0.04,Rain,Light Rain,0,2013-01-14 15:54:00
11:01 AM,62.6,59.0,88,30.12,4.0,Calm,Calm,-,0.00,Rain,Light Rain,0,2013-01-14 16:01:00
11:54 AM,63.0,60.1,90,30.09,10.0,Calm,Calm,-,0.00,,Overcast,0,2013-01-14 16:54:00
12:36 PM,62.6,60.8,94,30.10,1.8,SSW,4.6,-,0.05,Rain,Heavy Rain,210,2013-01-14 17:36:00
12:50 PM,62.6,60.8,94,30.09,0.8,SSW,4.6,-,0.17,Rain,Heavy Rain,200,2013-01-14 17:50:00
12:54 PM,63.0,61.0,93,30.08,1.2,South,3.5,-,0.18,Rain,Rain,190,2013-01-14 17:54:00
1:04 PM,62.6,60.8,94,30.09,2.0,SSW,4.6,-,0.03,Rain,Rain,200,2013-01-14 18:04:00
1:11 PM,62.6,60.8,94,30.09,1.8,SSW,3.5,-,0.05,Rain,Rain,200,2013-01-14 18:11:00
1:35 PM,62.6,60.8,94,30.08,2.0,SSW,3.5,-,0.16,Rain,Light Rain,200,2013-01-14 18:35:00
1:37 PM,62.6,60.8,94,30.08,3.0,Calm,Calm,-,0.16,Rain,Light Rain,0,2013-01-14 18:37:00
1:54 PM,63.0,62.1,97,30.07,6.0,Calm,Calm,-,0.16,Rain,Light Rain,0,2013-01-14 18:54:00
2:54 PM,64.0,62.1,93,30.08,7.0,South,3.5,-,0.01,,Overcast,180,2013-01-14 19:54:00
3:17 PM,64.4,62.6,94,30.09,6.0,Calm,Calm,-,N/A,,Overcast,0,2013-01-14 20:17:00
3:54 PM,64.0,63.0,96,30.10,4.0,South,3.5,-,0.02,Rain,Light Rain,180,2013-01-14 20:54:00
4:02 PM,64.4,62.6,94,30.11,4.0,South,3.5,-,0.00,Rain,Light Rain,190,2013-01-14 21:02:00
4:10 PM,64.4,62.6,94,30.11,6.0,South,3.5,-,0.00,Rain,Light Rain,180,2013-01-14 21:10:00
4:46 PM,62.6,62.6,100,30.12,4.0,Calm,Calm,-,0.01,Rain,Light Rain,0,2013-01-14 21:46:00
5:06 PM,62.6,62.6,100,30.13,4.0,Calm,Calm,-,0.00,Rain,Light Rain,0,2013-01-14 22:06:00
5:21 PM,62.6,62.6,100,30.12,2.5,Calm,Calm,-,0.00,,Overcast,0,2013-01-14 22:21:00
5:47 PM,62.6,60.8,94,30.12,0.8,Calm,Calm,-,0.00,,Overcast,0,2013-01-14 22:47:00
5:54 PM,62.1,61.0,96,30.12,1.0,Calm,Calm,-,0.00,Rain,Light Rain,0,2013-01-14 22:54:00
6:14 PM,62.6,62.6,100,30.12,2.5,Calm,Calm,-,0.01,Rain,Rain,0,2013-01-14 23:14:00
6:30 PM,62.6,60.8,94,30.12,0.8,Calm,Calm,-,0.02,Rain,Light Rain,0,2013-01-14 23:30:00
6:45 PM,62.6,60.8,94,30.12,1.5,Calm,Calm,-,0.03,Rain,Light Rain,0,2013-01-14 23:45:00
6:54 PM,62.1,61.0,96,30.11,1.0,Calm,Calm,-,0.03,Rain,Light Rain,0,2013-01-14 23:54:00
7:04 PM,62.6,60.8,94,30.12,3.0,Calm,Calm,-,0.00,Rain,Light Rain,0,2013-01-15 00:04:00
7:11 PM,62.6,60.8,94,30.12,2.5,Calm,Calm,-,0.02,Rain,Rain,0,2013-01-15 00:11:00
7:22 PM,62.6,60.8,94,30.12,3.0,Calm,Calm,-,0.02,Rain,Light Rain,0,2013-01-15 00:22:00
7:32 PM,62.6,60.8,94,30.11,1.5,Calm,Calm,-,0.03,Rain,Light Rain,0,2013-01-15 00:32:00
7:51 PM,62.6,60.8,94,30.11,2.0,Calm,Calm,-,0.03,,Overcast,0,2013-01-15 00:51:00
7:54 PM,62.1,61.0,96,30.10,2.5,Calm,Calm,-,0.03,,Overcast,0,2013-01-15 00:54:00
8:05 PM,62.6,60.8,94,30.11,3.0,Calm,Calm,-,N/A,,Overcast,0,2013-01-15 01:05:00
8:13 PM,62.6,62.6,100,30.11,1.5,Calm,Calm,-,N/A,,Overcast,0,2013-01-15 01:13:00
8:26 PM,62.6,60.8,94,30.11,0.8,Calm,Calm,-,N/A,,Overcast,0,2013-01-15 01:26:00
8:36 PM,62.6,60.8,94,30.10,2.5,East,3.5,-,N/A,,Overcast,100,2013-01-15 01:36:00
8:43 PM,62.6,60.8,94,30.11,4.0,ESE,3.5,-,N/A,,Overcast,110,2013-01-15 01:43:00
8:54 PM,62.1,61.0,96,30.10,4.0,Calm,Calm,-,N/A,,Overcast,0,2013-01-15 01:54:00
9:12 PM,60.8,60.8,100,30.11,2.5,WNW,9.2,-,N/A,,Overcast,300,2013-01-15 02:12:00
9:27 PM,62.6,62.6,100,30.12,6.0,NNW,4.6,-,N/A,,Overcast,330,2013-01-15 02:27:00
9:37 PM,62.6,60.8,94,30.12,6.0,NNW,10.4,-,N/A,,Overcast,330,2013-01-15 02:37:00
9:54 PM,57.9,55.9,93,30.12,10.0,NNW,8.1,16.1,N/A,,Overcast,330,2013-01-15 02:54:00
10:54 PM,57.0,55.0,93,30.13,10.0,NNW,8.1,-,N/A,,Overcast,340,2013-01-15 03:54:00
11:54 PM,53.1,51.1,93,30.15,10.0,NNE,12.7,-,N/A,,Overcast,20,2013-01-15 04:54:00